Meerawa, Australia

7:57 PM AEST on February 22, 2018 (GMT +1000)
Meerawa

Weather History for 94287 - November, 2013

Change the Weather History Date:

Sunday, November 3, 2013

  Actual Average Record
Temperature  
Mean Temperature 78 °F -  
Max Temperature 86 °F 87 °F - ()
Min Temperature 71 °F 72 °F - ()
Cooling Degree Days 14    
Growing Degree Days 28 (Base 50)    
Moisture  
Dew Point 66 °F    
Average Humidity 66    
Maximum Humidity 94    
Minimum Humidity 33    
Precipitation  
Precipitation 0.00 in 0.14 in - ()
Sea Level Pressure  
Sea Level Pressure 29.97 in    
Wind  
Wind Speed 11 mph ()    
Max Wind Speed 23 mph    
Max Gust Speed -    
Visibility 6.9 miles    
Events Rain    
T = Trace of Precipitation, MM = Missing Value Source: Averaged Metar Reports

Daily Weather History Graph

Daily Weather History Graph

Search for Another Location

Airport or City:

Trip Planner

Search our weather history database for the weather conditions in past years. The results will help you decide how hot, cold, wet, or windy it might be!

Date:

Astronomy

Nov. 03, 2013 Rise Set
Actual Time 5:38 AM AEST 6:23 PM AEST
Civil Twilight 5:15 AM AEST 6:45 PM AEST
Nautical Twilight 4:49 AM AEST 7:12 PM AEST
Astronomical Twilight 4:22 AM AEST 7:39 PM AEST
Moon 5:07 AM AEST (11/3) 6:07 PM AEST (11/3)
Length of Visible Light 13h 29m
Length of Day
12h 44m
Waning Crescent, 0% of the Moon is Illuminated
Nov 3
Waning Crescent
Nov 3
New
Nov 10
First Quarter
Nov 18
Full
Nov 26
Last Quarter

Hourly Weather History & Observations

Time (AEST) Temp. Heat Index Dew Point Humidity Pressure Visibility Wind Dir Wind Speed Gust Speed Precip Events Conditions
12:00 AM 75 °F - 68 °F 74% 29.99 in - South 10.4 mph - -  
12:00 AM 75.2 °F - 68.0 °F 78% 29.98 in 6.2 mi South 10.4 mph - N/A   Mostly Cloudy
12:30 AM 75.2 °F - 68.0 °F 78% 29.98 in 6.2 mi South 9.2 mph - N/A   Mostly Cloudy
1:00 AM 74 °F - 70 °F 83% 29.98 in - SE 8.1 mph - -  
1:00 AM 73.4 °F - 69.8 °F 88% 29.98 in 6.2 mi SE 8.1 mph - N/A Rain Light Rain Showers
1:30 AM 73.4 °F - 68.0 °F 83% 29.95 in 6.2 mi South 8.1 mph - N/A   Mostly Cloudy
2:00 AM 73.4 °F - 68.0 °F 83% 29.95 in 6.2 mi South 6.9 mph - N/A   Scattered Clouds
2:30 AM 73.4 °F - 69.8 °F 88% 29.95 in 6.2 mi South 8.1 mph - N/A   Mostly Cloudy
3:00 AM 74 °F - 69 °F 80% 29.95 in - SSE 6.9 mph - -  
3:00 AM 73.4 °F - 69.8 °F 88% 29.95 in 6.2 mi SSE 6.9 mph - N/A   Mostly Cloudy
3:30 AM 73.4 °F - 69.8 °F 88% 29.95 in 6.2 mi South 8.1 mph - N/A   Scattered Clouds
4:00 AM 74 °F - 69 °F 80% 29.96 in - SSE 8.1 mph - -  
4:00 AM 73.4 °F - 69.8 °F 88% 29.95 in 6.2 mi SSE 8.1 mph - N/A   Scattered Clouds
4:30 AM 73.4 °F - 68.0 °F 83% 29.95 in 6.2 mi SSE 5.8 mph - N/A   Mostly Cloudy
5:00 AM 73.4 °F - 68.0 °F 83% 29.95 in 6.2 mi SSE 6.9 mph - N/A   Mostly Cloudy
5:30 AM 73.4 °F - 69.8 °F 88% 29.98 in 3.1 mi South 12.7 mph - N/A Rain Rain Showers
5:46 AM 71.6 °F - 69.8 °F 94% 29.98 in 6.2 mi South 10.4 mph - N/A   Scattered Clouds
6:00 AM 73 °F - 69 °F 84% 29.99 in - South 10.4 mph - -   Overcast
6:00 AM 73.4 °F - 69.8 °F 88% 29.98 in 6.2 mi South 10.4 mph - N/A   Scattered Clouds
6:30 AM 73.4 °F - 69.8 °F 88% 29.98 in 6.2 mi South 10.4 mph - N/A   Scattered Clouds
7:00 AM 74 °F - 69 °F 79% 30.00 in - South 11.5 mph - -  
7:00 AM 75.2 °F - 68.0 °F 78% 29.98 in 6.2 mi South 11.5 mph - N/A   Mostly Cloudy
7:30 AM 77.0 °F - 69.8 °F 78% 30.01 in 6.2 mi South 10.4 mph - N/A   Scattered Clouds
8:00 AM 77.0 °F - 69.8 °F 78% 30.01 in 6.2 mi South 10.4 mph - N/A   Scattered Clouds
8:30 AM 78.8 °F - 69.8 °F 74% 30.01 in 6.2 mi South 12.7 mph - N/A   Scattered Clouds
9:00 AM 81 °F - 69 °F 58% 30.02 in 19 mi SSE 17.3 mph - -   Partly Cloudy
9:00 AM 80.6 °F 83.2 °F 68.0 °F 65% 30.01 in 6.2 mi SSE 17.3 mph - N/A   Partly Cloudy
9:30 AM 82.4 °F 85.4 °F 68.0 °F 62% 30.01 in 6.2 mi SE 19.6 mph - N/A   Partly Cloudy
10:00 AM 83 °F - 67 °F 49% 30.01 in - SE 19.6 mph - -  
10:00 AM 82.4 °F 84.6 °F 66.2 °F 58% 30.01 in 6.2 mi SE 19.6 mph - N/A   Partly Cloudy
10:30 AM 82.4 °F 84.6 °F 66.2 °F 58% 29.98 in 6.2 mi SE 19.6 mph - N/A   Partly Cloudy
11:00 AM 82.4 °F 83.4 °F 62.6 °F 51% 29.98 in 6.2 mi SE 17.3 mph - N/A   Partly Cloudy
11:30 AM 84.2 °F 84.4 °F 60.8 °F 45% 29.98 in 6.2 mi SE 20.7 mph - N/A   Partly Cloudy
12:00 PM 86 °F - 64 °F 38% 29.98 in 19 mi ESE 18.4 mph - -   Partly Cloudy
12:00 PM 86.0 °F 87.3 °F 64.4 °F 48% 29.98 in 6.2 mi ESE 18.4 mph - N/A   Partly Cloudy
12:30 PM 84.2 °F 85.0 °F 62.6 °F 48% 29.95 in 6.2 mi SE 18.4 mph - N/A   Partly Cloudy
1:00 PM 84 °F - 59 °F 33% 29.96 in - ESE 19.6 mph - -  
1:00 PM 84.2 °F 83.8 °F 59.0 °F 42% 29.95 in 6.2 mi ESE 19.6 mph - N/A   Partly Cloudy
1:30 PM 84.2 °F 85.0 °F 62.6 °F 48% 29.92 in 6.2 mi ESE 19.6 mph - N/A   Partly Cloudy
2:00 PM 84.2 °F 85.0 °F 62.6 °F 48% 29.92 in 6.2 mi ESE 19.6 mph - N/A   Partly Cloudy
2:30 PM 84.2 °F 85.0 °F 62.6 °F 48% 29.92 in 6.2 mi ESE 20.7 mph - N/A   Partly Cloudy
3:00 PM 84 °F - 62 °F 38% 29.92 in 19 mi ESE 20.7 mph - -   Partly Cloudy
3:00 PM 84.2 °F 85.0 °F 62.6 °F 48% 29.92 in 6.2 mi ESE 20.7 mph - N/A   Partly Cloudy
3:30 PM 84.2 °F 84.4 °F 60.8 °F 45% 29.89 in 6.2 mi ESE 21.9 mph - N/A   Partly Cloudy
4:00 PM 83 °F - 61 °F 38% 29.91 in - SE 21.9 mph - -  
4:00 PM 82.4 °F 82.9 °F 60.8 °F 48% 29.89 in 6.2 mi SE 21.9 mph - N/A   Partly Cloudy
4:30 PM 82.4 °F 82.9 °F 60.8 °F 48% 29.92 in 6.2 mi ESE 23.0 mph - N/A   Partly Cloudy
5:00 PM 80.6 °F 81.8 °F 62.6 °F 54% 29.92 in 6.2 mi SE 20.7 mph - N/A   Partly Cloudy
5:30 PM 80.6 °F 82.3 °F 64.4 °F 58% 29.92 in 6.2 mi ESE 19.6 mph - N/A   Partly Cloudy
6:00 PM 78 °F - 63 °F 51% 29.94 in - SE 18.4 mph - -  
6:00 PM 78.8 °F - 62.6 °F 57% 29.92 in 6.2 mi SE 18.4 mph - N/A   Partly Cloudy
6:30 PM 77.0 °F - 64.4 °F 65% 29.95 in 6.2 mi SE 17.3 mph - N/A   Partly Cloudy
7:00 PM 77 °F - 63 °F 53% 29.97 in - SE 15.0 mph - -  
7:00 PM 77.0 °F - 62.6 °F 61% 29.95 in 6.2 mi SE 15.0 mph - N/A   Partly Cloudy
7:30 PM 77.0 °F - 62.6 °F 61% 29.98 in 6.2 mi SSE 11.5 mph - N/A   Partly Cloudy
8:00 PM 77.0 °F - 62.6 °F 61% 29.98 in 6.2 mi South 9.2 mph - N/A   Light Drizzle
8:30 PM 75.2 °F - 64.4 °F 69% 30.01 in 6.2 mi South 6.9 mph - N/A   Scattered Clouds
9:00 PM 75 °F - 65 °F 63% 30.02 in - South 8.1 mph - -  
9:00 PM 75.2 °F - 64.4 °F 69% 30.01 in 6.2 mi South 8.1 mph - N/A   Partly Cloudy
9:30 PM 75.2 °F - 66.2 °F 73% 30.01 in 6.2 mi South 6.9 mph - N/A   Partly Cloudy
10:00 PM 74 °F - 66 °F 68% 30.04 in - South 6.9 mph - -  
10:00 PM 75.2 °F - 66.2 °F 73% 30.01 in 6.2 mi South 6.9 mph - N/A   Partly Cloudy
10:30 PM 73.4 °F - 66.2 °F 78% 30.04 in 6.2 mi SSE 8.1 mph - N/A   Partly Cloudy
11:00 PM 73.4 °F - 66.2 °F 78% 30.01 in 6.2 mi SSE 5.8 mph - N/A   Partly Cloudy
11:30 PM 73.4 °F - 66.2 °F 78% 30.01 in 6.2 mi SSW 4.6 mph - N/A   Partly Cloudy